Wind_Speed
11 11 11 11 11 12 13 13 14 15 15 14 14 14 14 12 10 9 8 8 10 7 7 9 12 9 6 3 2 1 2 2 2 5 1 9 7 8 4 6 8 8 4 9 18
12 12 13 13 13 12 13 14 14 15 15 15 15 15 15 14 10 7 7 9 10 10 10 8 11 9 2 3 3 3 2 2 2 4 4 15 10 13 6 10 7 8 6 17 21
15 15 15 15 15 15 14 14 14 15 16 15 15 16 15 14 2 2 9 13 10 10 4 7 5 7 3 3 4 2 3 5 6 10 9 11 13 11 7 8 12 13 14 24 24
16 17 16 17 17 17 16 15 15 15 15 15 16 15 15 9 1 3 8 12 12 11 8 7 10 5 3 3 5 4 9 7 6 9 10 9 9 8 16 3 6 12 18 25 25
17 17 18 18 18 18 18 17 16 16 16 15 15 14 15 8 4 3 6 11 11 11 10 9 10 5 3 3 3 8 6 7 10 7 8 11 13 7 16 5 8 15 21 23 23
19 19 19 19 19 19 19 18 18 17 17 15 15 13 13 5 4 4 7 7 7 7 8 10 4 6 5 2 4 4 11 16 6 6 8 11 8 8 7 12 14 20 23 21 22
20 20 20 20 21 20 19 18 19 18 18 16 15 13 15 16 7 7 8 7 6 4 4 4 5 4 2 3 3 5 7 8 5 4 2 8 9 13 10 16 18 20 22 23 24
21 21 21 21 21 22 19 19 19 18 18 16 14 12 10 9 9 15 11 10 9 8 5 6 8 7 5 3 1 3 2 5 2 4 1 7 8 7 16 18 21 22 21 21 24
21 21 21 21 21 21 19 19 18 17 16 14 11 8 9 8 12 13 14 14 11 10 9 9 7 4 4 3 3 1 4 3 3 4 3 4 10 6 11 18 20 23 24 22 22
22 21 21 21 21 20 17 16 15 13 11 9 11 5 13 4 6 9 10 12 12 9 4 4 3 3 2 4 9 2 2 3 6 2 4 6 17 9 7 16 21 21 24 23 23
20 22 21 20 20 19 16 9 6 5 8 8 3 7 7 5 6 7 10 10 11 7 6 1 5 7 9 6 2 2 4 7 10 3 4 12 18 20 8 16 19 18 23 23 26
20 21 21 20 18 16 11 2 7 5 10 12 21 28 29 25 8 9 11 9 8 10 5 4 10 7 3 3 4 5 8 12 11 6 6 11 15 16 14 18 25 24 26 28 27
19 20 20 19 17 11 5 4 4 8 5 10 16 19 21 17 18 24 12 10 6 8 10 11 5 4 7 5 6 7 10 12 11 0 9 3 10 9 11 15 17 19 23 28 30
20 19 20 18 11 7 3 4 8 3 3 6 5 8 11 12 8 29 21 11 4 12 8 6 4 9 6 9 8 11 10 16 10 4 4 2 5 5 8 14 13 18 20 24 23
20 20 18 16 15 8 3 5 7 3 3 2 4 1 5 11 1 11 24 19 12 9 7 8 7 9 10 11 10 9 3 4 4 7 2 6 5 4 2 10 12 9 11 21 25
20 20 19 17 15 8 7 5 5 3 8 3 2 4 4 9 4 3 8 11 10 8 3 7 2 4 8 6 13 5 1 3 2 4 7 4 5 7 4 2 10 4 7 10 18
19 20 20 17 13 7 5 3 4 6 2 1 1 1 3 4 7 8 11 12 11 9 13 6 10 5 6 7 5 5 4 3 6 6 8 3 4 8 7 5 9 16 12 9 15
21 21 18 16 11 9 6 4 9 3 9 3 4 8 3 2 4 9 8 10 5 6 6 11 9 11 9 13 7 8 5 5 9 7 7 3 4 4 1 3 8 10 6 8 14
22 19 14 8 12 14 6 10 6 6 2 6 6 4 1 1 2 5 10 11 14 13 10 7 6 3 6 5 7 6 5 2 5 2 3 2 4 10 6 5 6 7 3 6 7
23 19 6 7 9 18 4 8 3 3 3 2 2 2 2 4 1 2 6 1 4 11 4 7 5 4 2 5 5 5 9 3 1 4 6 4 4 6 9 7 5 8 5 6 8
18 8 8 2 13 9 7 6 7 9 5 2 2 4 3 3 3 2 3 3 1 2 8 8 7 5 4 7 9 4 4 3 2 2 5 8 4 6 5 5 7 8 6 9 13
6 2 2 15 3 0 3 4 3 5 3 5 3 5 7 6 4 2 2 1 0 6 8 7 6 9 14 3 0 2 3 5 4 5 1 3 5 2 5 6 7 10 7 9 8
14 3 8 2 2 3 2 3 4 7 7 3 4 7 2 4 3 3 1 2 5 4 6 7 4 7 6 4 3 5 5 4 4 2 7 4 3 6 5 5 9 12 6 9 11
5 1 1 6 3 1 1 3 4 4 8 8 7 8 4 5 3 3 1 1 3 4 2 5 2 4 11 10 3 5 7 7 4 5 7 5 2 9 13 12 12 11 9 8 11
3 2 2 2 5 4 2 3 9 5 4 5 5 14 9 5 3 4 2 3 3 4 2 0 3 3 2 3 3 3 10 10 7 2 4 6 5 7 13 13 16 11 11 14 14
3 4 6 6 5 3 3 3 5 5 6 5 8 9 15 5 5 6 3 1 1 2 2 1 1 1 3 4 6 10 6 6 4 4 1 1 3 11 11 14 14 11 9 12 13
5 5 3 5 2 2 3 3 4 4 7 12 10 5 8 9 4 1 3 2 1 3 4 3 2 1 3 3 6 6 6 3 7 8 3 2 5 14 12 12 12 14 10 11 12
Wind_Direction
344 340 338 338 339 338 338 338 338 338 340 343 342 338 334 330 316 282 252 233 203 194 152 170 166 159 178 256 235 267 299 266 200 187 144 160 168 173 211 169 174 197 183 178 173
335 330 330 330 329 329 330 332 333 332 333 336 337 336 334 333 319 267 208 200 198 189 176 178 170 167 212 269 194 242 277 249 225 212 208 175 179 175 182 175 205 203 219 178 180
328 327 326 324 323 322 323 325 326 325 326 330 331 334 334 334 356 37 186 178 183 173 189 158 175 173 219 219 231 174 273 308 274 213 199 183 195 185 189 192 218 203 184 180 186
323 322 322 321 319 319 318 319 319 318 319 323 326 329 330 332 212 78 159 165 172 186 193 179 166 194 225 215 221 247 251 261 271 201 178 177 175 201 203 191 222 196 184 183 192
321 319 318 317 315 314 314 315 313 310 311 315 319 324 329 321 256 175 148 175 188 202 211 206 183 212 239 195 213 255 274 281 275 252 220 165 192 208 220 225 181 179 184 192 196
319 318 316 314 312 310 310 311 308 303 303 307 310 313 314 292 234 202 190 181 201 218 222 206 225 222 281 245 231 255 284 292 322 307 216 198 199 203 230 201 176 179 189 196 204
316 316 315 314 311 308 307 308 303 300 299 301 300 302 294 271 236 209 188 195 221 224 201 188 215 247 293 261 285 291 288 308 318 340 161 191 226 229 212 191 184 189 196 198 209
315 314 314 313 310 309 309 306 300 298 297 297 294 290 268 251 235 221 209 213 223 230 231 270 264 259 220 267 270 256 259 295 51 166 74 219 277 227 200 189 200 198 202 202 210
313 313 312 312 311 310 311 306 299 296 293 289 281 265 262 237 235 233 223 229 235 239 249 257 252 234 195 198 238 328 262 282 299 154 126 228 285 27 206 207 207 201 207 206 214
315 313 312 313 312 313 314 307 300 288 276 274 255 273 245 218 192 185 204 218 222 221 228 200 160 199 142 219 257 242 290 287 273 105 214 253 263 247 198 223 233 213 214 207 213
314 314 314 313 312 316 319 330 301 272 250 224 205 239 261 244 243 221 189 196 191 180 205 175 226 227 216 210 231 263 263 274 275 235 265 269 268 279 242 230 237 229 220 222 222
316 314 314 315 312 317 330 27 57 324 302 260 255 256 255 264 290 228 212 182 170 202 152 196 244 217 203 175 222 235 266 263 282 275 203 267 269 278 269 246 244 230 223 222 225
317 315 313 315 314 313 314 219 328 335 262 280 247 248 254 240 237 248 206 193 174 170 194 221 226 167 188 192 213 246 253 269 260 217 224 279 272 273 281 255 259 251 238 230 223
317 315 316 318 313 330 266 175 320 282 290 265 226 242 224 199 239 245 226 198 186 203 172 234 221 204 205 237 217 260 254 252 260 212 271 228 292 261 286 289 277 264 238 239 231
317 315 314 315 304 313 240 285 316 155 273 207 198 253 203 191 263 217 207 204 201 170 173 215 188 191 210 224 187 258 263 285 253 202 193 196 243 267 280 285 279 313 263 242 228
318 313 307 307 298 292 252 267 162 206 239 291 237 186 171 216 232 130 180 196 202 157 227 232 214 209 227 220 197 122 234 65 87 174 235 160 252 269 249 253 305 119 331 242 219
315 308 302 293 290 272 241 184 195 222 343 247 264 322 262 213 210 200 181 188 185 185 218 207 229 226 208 240 181 190 210 239 210 206 245 105 214 275 271 316 301 308 297 241 214
316 309 296 287 268 243 224 187 215 238 248 319 310 298 243 179 222 192 167 188 195 185 204 210 230 204 186 217 224 198 216 231 237 227 249 126 225 262 274 300 312 309 281 221 206
321 313 305 282 231 209 182 204 213 209 304 313 302 272 284 282 256 195 199 198 193 182 195 173 235 241 208 165 186 156 207 63 113 56 253 280 262 271 260 250 321 304 237 204 185
328 322 308 254 212 185 197 229 229 232 323 303 292 331 307 327 235 239 177 161 220 206 233 201 243 205 150 149 66 226 140 179 177 180 241 213 262 266 277 246 257 259 222 152 143
330 331 326 208 161 170 212 237 251 244 250 282 304 319 314 339 321 319 178 139 120 136 207 158 220 172 206 201 195 153 183 68 116 284 268 269 245 229 268 232 231 240 202 153 156
339 289 358 136 145 326 208 208 259 279 207 266 268 260 275 305 280 259 204 168 120 172 179 195 193 224 227 121 33 161 178 177 232 195 219 288 246 188 199 210 233 240 199 142 147
332 293 183 76 217 204 251 261 252 254 235 226 256 229 228 253 253 244 245 70 33 165 179 174 204 217 208 156 158 209 184 171 113 144 185 213 226 67 21 299 268 276 215 176 184
325 269 132 230 268 222 289 255 251 256 257 235 251 247 233 250 206 281 267 161 9 35 150 154 147 237 235 230 155 176 182 182 213 185 160 221 260 42 17 346 292 254 230 193 203
304 333 3 242 236 220 187 282 272 286 244 225 230 228 204 225 208 228 239 309 122 29 66 269 214 193 39 329 191 152 176 169 215 196 202 160 181 43 352 328 317 275 233 206 206
327 344 339 287 291 224 158 237 245 233 226 253 230 228 217 234 220 202 184 174 25 3 92 345 151 177 100 35 130 93 62 158 107 134 38 33 114 11 351 344 332 327 259 230 223
333 329 323 287 295 243 211 237 270 352 249 245 268 250 188 219 216 307 176 118 56 336 8 31 46 22 148 25 142 110 11 63 101 65 341 72 355 335 346 1 352 341 315 255 226
Height
1550 1549 1547 1546 1544 1543 1541 1539 1537 1534 1532 1531 1530 1529 1527 1525 1523 1522 1522 1523 1524 1524 1526 1527 1529 1530 1531 1530 1529 1530 1528 1528 1524 1524 1521 1524 1526 1528 1528 1529 1529 1530 1530 1532 1533
1550 1548 1546 1545 1543 1542 1540 1538 1536 1533 1531 1530 1528 1527 1525 1523 1520 1518 1520 1521 1522 1524 1525 1526 1527 1529 1531 1528 1528 1528 1527 1522 1518 1518 1517 1520 1523 1524 1526 1528 1529 1530 1529 1530 1532
1548 1547 1546 1544 1542 1541 1539 1537 1535 1532 1530 1528 1527 1525 1523 1521 1520 1519 1518 1520 1522 1524 1527 1527 1528 1529 1529 1529 1526 1525 1522 1516 1515 1516 1516 1520 1522 1523 1525 1526 1524 1525 1527 1529 1531
1547 1546 1544 1542 1541 1539 1537 1536 1533 1531 1529 1527 1526 1524 1522 1521 1523 1519 1518 1519 1522 1524 1526 1526 1528 1529 1527 1526 1524 1523 1517 1517 1512 1513 1515 1518 1519 1520 1521 1518 1519 1522 1526 1528 1530
1546 1544 1542 1540 1539 1537 1535 1534 1531 1529 1527 1527 1525 1524 1522 1521 1519 1519 1519 1520 1522 1523 1524 1525 1526 1526 1524 1524 1524 1519 1514 1511 1512 1514 1514 1516 1518 1518 1518 1518 1519 1521 1525 1528 1531
1542 1541 1540 1538 1536 1534 1533 1532 1529 1528 1526 1525 1524 1523 1521 1522 1517 1518 1519 1520 1521 1522 1522 1523 1523 1523 1523 1522 1522 1517 1513 1510 1510 1511 1511 1514 1517 1518 1514 1516 1518 1519 1521 1526 1530
1540 1538 1537 1535 1533 1531 1530 1529 1526 1525 1524 1522 1521 1520 1519 1516 1515 1516 1517 1519 1520 1520 1521 1522 1523 1524 1522 1520 1520 1518 1515 1510 1508 1511 1509 1511 1514 1510 1511 1512 1515 1518 1518 1521 1526
1538 1536 1534 1532 1530 1528 1527 1525 1522 1521 1520 1519 1519 1519 1515 1512 1511 1512 1515 1517 1518 1519 1520 1521 1521 1522 1522 1520 1519 1518 1517 1516 1508 1510 1509 1510 1506 1502 1506 1508 1510 1514 1516 1518 1522
1535 1533 1532 1530 1527 1525 1524 1521 1519 1518 1517 1516 1516 1517 1512 1508 1508 1509 1512 1514 1516 1517 1518 1519 1520 1519 1520 1518 1520 1519 1519 1518 1510 1508 1509 1511 1503 1503 1506 1506 1506 1510 1511 1514 1518
1532 1530 1528 1526 1524 1522 1521 1518 1516 1514 1514 1514 1513 1517 1507 1507 1506 1507 1508 1510 1513 1515 1517 1517 1518 1517 1517 1516 1527 1523 1522 1517 1517 1509 1510 1509 1503 1500 1504 1506 1505 1508 1508 1509 1512
1529 1527 1525 1523 1521 1519 1518 1515 1516 1514 1510 1508 1508 1506 1504 1504 1504 1504 1505 1507 1509 1512 1513 1516 1516 1518 1513 1513 1514 1517 1520 1520 1507 1506 1508 1504 1501 1494 1501 1501 1501 1505 1506 1509 1508
1528 1524 1522 1520 1519 1517 1516 1515 1515 1517 1510 1504 1502 1501 1501 1503 1504 1501 1502 1505 1505 1508 1512 1515 1514 1511 1513 1514 1515 1515 1518 1515 1507 1505 1507 1503 1501 1493 1493 1492 1491 1495 1497 1500 1505
1525 1522 1519 1518 1516 1516 1515 1515 1515 1514 1513 1498 1496 1495 1494 1498 1496 1495 1499 1499 1500 1505 1506 1509 1507 1509 1511 1513 1514 1511 1514 1510 1511 1505 1505 1507 1504 1494 1484 1485 1485 1487 1491 1492 1497
1524 1521 1517 1516 1518 1514 1514 1514 1513 1513 1512 1496 1491 1488 1488 1490 1490 1487 1493 1496 1497 1498 1504 1505 1503 1505 1509 1510 1509 1514 1501 1502 1504 1511 1515 1507 1516 1498 1488 1483 1480 1481 1486 1488 1495
1522 1519 1516 1515 1515 1515 1516 1514 1513 1514 1525 1487 1485 1484 1484 1486 1483 1481 1485 1490 1491 1494 1500 1501 1502 1505 1507 1503 1504 1503 1500 1502 1503 1506 1509 1511 1513 1490 1494 1486 1476 1477 1480 1480 1483
1520 1516 1513 1513 1511 1512 1512 1513 1514 1518 1522 1486 1481 1480 1483 1482 1481 1480 1483 1486 1488 1492 1496 1494 1497 1497 1495 1496 1498 1500 1502 1506 1509 1504 1514 1510 1506 1490 1485 1480 1475 1481 1477 1475 1476
1515 1513 1510 1509 1510 1509 1510 1512 1517 1518 1494 1486 1482 1480 1478 1476 1477 1476 1479 1482 1485 1500 1499 1497 1494 1493 1494 1497 1498 1499 1504 1513 1517 1513 1512 1513 1511 1489 1476 1480 1479 1476 1475 1472 1471
1510 1507 1505 1505 1505 1507 1509 1511 1517 1498 1492 1485 1483 1479 1477 1473 1473 1473 1477 1480 1482 1483 1490 1501 1504 1489 1487 1487 1490 1495 1496 1504 1524 1518 1506 1515 1508 1485 1478 1480 1478 1476 1472 1470 1472
1504 1502 1499 1499 1500 1503 1509 1507 1496 1496 1490 1488 1482 1480 1476 1473 1474 1474 1472 1473 1470 1475 1486 1495 1497 1481 1481 1481 1483 1495 1499 1494 1509 1524 1511 1502 1493 1478 1473 1476 1476 1476 1474 1473 1478
1500 1497 1496 1495 1497 1501 1505 1498 1494 1493 1491 1489 1489 1483 1483 1476 1474 1473 1473 1470 1470 1472 1472 1479 1493 1480 1478 1481 1486 1484 1488 1499 1501 1522 1524 1506 1506 1488 1472 1472 1475 1475 1475 1478 1482
1500 1496 1495 1493 1497 1501 1498 1497 1494 1491 1492 1490 1489 1487 1482 1480 1476 1473 1474 1470 1469 1471 1474 1476 1479 1483 1480 1478 1479 1489 1489 1498 1495 1502 1503 1508 1496 1471 1470 1471 1473 1472 1475 1482 1485
1500 1498 1496 1496 1499 1501 1496 1495 1494 1488 1490 1488 1487 1486 1484 1480 1477 1473 1471 1467 1469 1469 1472 1472 1471 1481 1476 1474 1476 1475 1479 1480 1490 1507 1505 1498 1488 1469 1471 1472 1473 1471 1477 1484 1486
1500 1497 1497 1496 1496 1496 1496 1493 1492 1488 1487 1486 1485 1483 1480 1479 1482 1473 1469 1468 1468 1468 1469 1471 1474 1480 1479 1478 1478 1475 1478 1480 1487 1489 1500 1495 1484 1475 1478 1476 1476 1475 1479 1482 1483
1502 1497 1497 1497 1497 1495 1493 1491 1489 1485 1484 1483 1481 1481 1480 1478 1477 1474 1469 1467 1467 1467 1468 1469 1476 1471 1472 1466 1465 1475 1475 1479 1477 1481 1488 1481 1474 1474 1478 1476 1473 1473 1477 1483 1484
1503 1500 1499 1493 1493 1493 1493 1490 1487 1487 1481 1480 1477 1476 1475 1478 1477 1474 1470 1466 1467 1468 1469 1470 1472 1474 1471 1469 1466 1466 1468 1475 1478 1473 1471 1472 1475 1479 1482 1478 1472 1471 1472 1476 1480
1505 1503 1499 1496 1493 1491 1491 1487 1484 1480 1480 1475 1476 1469 1472 1473 1471 1472 1470 1469 1469 1468 1469 1471 1473 1472 1472 1471 1465 1472 1472 1471 1474 1478 1475 1476 1477 1482 1484 1480 1474 1471 1473 1475 1478
1504 1502 1502 1494 1492 1490 1485 1483 1479 1479 1472 1471 1470 1471 1469 1469 1470 1469 1469 1470 1470 1471 1470 1471 1472 1472 1475 1477 1470 1478 1483 1478 1482 1485 1487 1478 1482 1483 1482 1481 1476 1472 1471 1474 1477